Regional Weather Roundup
Issued by NWS Cleveland, OH

Home | Current Version | Previous Version | Text Only | Print | Product List | Glossary Off
Versions: 1 2 3 4 5 6 7 8 9 10 11 12 13 14 15 16 17 18 19 20 21 22 23 24 25 26 27 28 29 30 31 32 33 34 35 36 37 38 39 40 41 42 43 44 45 46 47 48 49 50

000
ASUS41 KCLE 210610
RWRCLE
OHIO REGIONAL WEATHER ROUNDUP
NATIONAL WEATHER SERVICE WILMINGTON, OH
200 AM EDT THU SEP 21 2017

NOTE: "FAIR" INDICATES FEW OR NO CLOUDS BELOW 12,000 FEET WITH NO
SIGNIFICANT WEATHER AND/OR OBSTRUCTIONS TO VISIBILITY.

OHZ001>008-015>018-024>027-034-035-043-044-210700-
   NORTHWEST OHIO

CITY           SKY/WX    TMP DP  RH WIND       PRES   REMARKS
DEFIANCE       FAIR      67  65  93 CALM      30.04R
FINDLAY        FAIR      68  63  84 SE5       30.05R
TOLEDO EXPRESS FAIR      64  64 100 CALM      30.04R FOG
TOLEDO EXEC    FAIR      67  65  93 E6        30.05R FOG
LIMA           FAIR      66  65  96 S3        30.06R
$$

OHZ009>014-019>023-028>033-038-089-210700-
   NORTHEAST OHIO

CITY           SKY/WX    TMP DP  RH WIND       PRES   REMARKS
CLE-HOPKINS    FAIR      70  63  78 CALM      30.07R
CLE-LAKEFRONT  FAIR      71  63  75 SE7       30.04R
CUY CO. ARPT   NOT AVBL
LORAIN-ELYRIA  FAIR      62  56  80 W3        30.07R
ASHTABULA      FAIR      62  61  96 CALM      30.07R
AKRON-CANTON   FAIR      68  63  84 CALM      30.07R
WOOSTER        FAIR      59  58  96 CALM      30.09R
MANSFIELD      FAIR      66  65  96 S3        30.09R
YOUNGSTOWN     FAIR      63  62  97 CALM      30.07R
$$

OHZ042-051>053-060>062-070>072-077>081-210700-
  SOUTHWEST OHIO

CITY           SKY/WX    TMP DP  RH WIND       PRES   REMARKS
CINC-COVINGTON FAIR      68  68 100 CALM      30.05R
CINC-LUNKEN    FAIR      66  66 100 CALM      30.06R FOG
HAMILTON       FAIR      64  64 100 CALM      30.06R FOG
DAYTON         FAIR      67  65  93 CALM      30.08R
WRIGHT-PAT AFB FAIR      67  67 100 CALM      30.07R
DAYTON GENERAL FAIR      69  65  86 CALM      30.06R
WILMINGTON     FAIR      66  66 100 CALM      30.07R
$$

OHZ036-037-039>041-045>050-054>059-063>069-073>076-082>088-210700-
  CENTRAL AND SOUTHEAST OHIO

CITY           SKY/WX    TMP DP  RH WIND       PRES   REMARKS
COLUMBUS       FAIR      68  67  96 CALM      30.06R
OSU AIRPORT    FAIR      67  67 100 CALM      30.06R
BOLTON FIELD   FAIR      63  63  99 CALM      30.07R FOG
RICKENBACK AFB FAIR      66  66 100 CALM      30.06R
NEWARK         FOG       63  62  97 CALM      30.06R VSB 1/4
MARION         FAIR      65  63  93 CALM      30.08R
LANCASTER      FAIR      62  62 100 CALM      30.07R FOG
ZANESVILLE     FAIR      65  62  90 CALM      30.06R
NEW PHILLY     FOG       63  63 100 CALM      30.07R VSB 3/4
$$




USA.gov is the U.S. government's official web portal to all federal, state and local government web resources and services.